73P/Schwassmann-Wachmann 3 (2017)

Japanese version
Home page
Updated on January 17, 2017

---------------------------------------------------------------------

* Profile

* Pictures

* Orbital Elements

Epoch 2017 Mar. 28.0 TT = JDT 2457840.5
T 2017 Mar. 16.84614 TT                                 MPCW
q   0.9721753            (2000.0)            P               Q
n   0.18133529     Peri.  199.38998     -0.02249924     +0.98290751
a   3.0913475      Node    69.66280     -0.88959298     +0.06371601
e   0.6855173      Incl.   11.23698     -0.45619964     -0.17272261
P   5.44
From 398 observations 2010 Nov. 28-2016 Oct. 12, mean residual 0".8.
     Nongravitational parameters A1 = -0.03, A2 = -0.1578.

* Finding Charts

* Magnitudes Graph

	Component C:
        m1 =  9.7 + 5 log d + 16.5 log r  [   ,-76]  (             - 2016 Dec. 30)
        m1 = 11.2 + 5 log d +  6.5 log r  [-76,  0]  (2016 Dec. 30 - 2017 Mar. 16)
        m1 = 11.4 + 5 log d + 15.0 log r  [  0,   ]  (2017 Mar. 16 -             )

	Component B:
        m1 = 12.0 + 5 log d + 20.0 log r(t + 30)

---------------------------------------------------------------------

The orbital elements are published on M.P.E.C. 2016-V116.
The charts are made with StellaNavigator Ver.8 (AstroArts).
The magnitudes graphs are made with Comet for Windows.

---------------------------------------------------------------------

Copyright(C) Seiichi Yoshida (comet@aerith.net). All rights reserved.